fusioninventory-agent [kinetic/ppc64el]

Version Triggers Date Duration Requester Result
1:2.6-2 libjson-pp-perl/4.10000-1 2022-06-25 19:23:04 UTC 0h 19m 07s - pass logartifacts
1:2.6-2 libwww-perl/6.67-1 2022-06-18 09:40:11 UTC 0h 12m 37s - pass logartifacts
1:2.6-2 libproc-daemon-perl/0.23-2 2022-06-17 22:19:54 UTC 0h 13m 12s - pass logartifacts
1:2.6-2 libsocket-getaddrinfo-perl/0.22-4 2022-06-17 19:11:41 UTC 0h 14m 07s - pass logartifacts
1:2.6-2 libnet-cups-perl/0.64-2 2022-06-17 04:29:10 UTC 0h 09m 50s - pass logartifacts
1:2.6-2 libnet-nbname-perl/0.26-3 2022-06-17 01:58:51 UTC 0h 10m 23s - pass logartifacts
1:2.6-2 libxml-treepp-perl/0.43-1.1 2022-06-15 06:16:33 UTC 0h 18m 25s - pass logartifacts
1:2.6-2 libsocket-getaddrinfo-perl/0.22-3.1 2022-06-15 06:02:47 UTC 0h 14m 37s - pass logartifacts
1:2.6-2 libproc-daemon-perl/0.23-1.1 2022-06-15 03:01:43 UTC 0h 11m 19s - pass logartifacts
1:2.6-2 usb.ids/2022.05.20-1 2022-06-11 07:49:56 UTC 0h 14m 31s - pass logartifacts
1:2.6-2 libjson-pp-perl/4.09000-1 2022-05-26 03:04:26 UTC 0h 18m 49s - pass logartifacts
1:2.6-2 libwww-perl/6.66-1 2022-05-22 08:07:47 UTC 0h 19m 04s - pass logartifacts
1:2.6-2 usb.ids/2022.05.09-1 2022-05-17 09:30:23 UTC 0h 08m 08s - pass logartifacts
1:2.6-2 libxml-xpath-perl/1.47-1 2022-05-16 01:09:42 UTC 0h 13m 56s - pass logartifacts
1:2.6-2 libwww-perl/6.65-1 2022-05-15 08:14:00 UTC 0h 16m 06s - pass logartifacts
1:2.6-2 libtext-template-perl/1.61-1 2022-05-09 02:06:05 UTC 0h 11m 56s - pass logartifacts
1:2.6-2 libfile-which-perl/1.27-1 2022-05-05 07:29:49 UTC 0h 15m 59s - pass logartifacts
1:2.6-2 libwww-perl/6.64-1 2022-05-02 18:27:04 UTC 0h 13m 12s - pass logartifacts
1:2.6-2 libjson-pp-perl/4.08000-1 2022-04-30 15:36:06 UTC 0h 15m 24s - pass logartifacts
1:2.6-2 libhttp-daemon-perl/6.14-1 2022-04-30 03:39:52 UTC 0h 13m 45s - pass logartifacts
1:2.6-2 pci.ids/0.0~2022.04.15-1 2022-04-29 20:46:56 UTC 0h 15m 18s - pass logartifacts
1:2.6-2 usb.ids/2022.04.02-1 2022-04-04 12:06:46 UTC 0h 16m 24s - pass logartifacts